This demonstration page uses our WeatherBlox Daily Observations layout. Learn more.

Left ArrowRight Arrow

39.12711, -84.51439

Hourly Observations for November 28, 2020

Temp ( °F °C ) Dew Point ( °F °C ) Humidity (%) Winds ( mph kmh ) Pressure ( in mb ) Visibility ( mi km ) Precip ( " mm )
12:53 am 00:53 Clear 44 6.7 38 3.3 79 79 NNW 3 6 30.13 1020 10 16 0.00 0.00
1:53 am 01:53 Clear 38 3.3 35 1.7 89 89 Calm 30.14 1021 10 16 0.00 0.00
2:30 am 02:30 Mostly Cloudy 44 6.7 38 3.3 79 79 NW 6 9 30.15 1021 10 16 0.00 0.00
2:53 am 02:53 Mostly Cloudy 43 6.1 37 2.8 80 80 NW 7 11 30.15 1021 10 16 0.00 0.00
3:22 am 03:22 Partly Cloudy 42 5.6 35 1.7 76 76 NW 12 19 30.19 1022 10 16 0.00 0.00
3:53 am 03:53 Clear 40 4.4 34 1.1 79 79 NNW 10 17 30.17 1022 10 16 0.00 0.00
4:27 am 04:27 Mostly Cloudy 40 4.4 33 0.6 77 77 NNW 9 15 30.19 1022 10 16 0.00 0.00
4:53 am 04:53 Partly Cloudy 39 3.9 32 0 76 76 NW 7 11 30.17 1022 10 16 0.00 0.00
5:53 am 05:53 Partly Cloudy 37 2.8 31 -0.6 79 79 WNW 3 6 30.19 1023 10 16 0.00 0.00
6:14 am 06:14 Mostly Cloudy 38 3.3 32 0 79 79 WNW 3 6 30.22 1023 10 16 0.00 0.00
6:28 am 06:28 Partly Cloudy 37 2.8 31 -0.6 79 79 Calm 30.22 1023 10 16 0.00 0.00
6:53 am 06:53 Mostly Clear 36 2.2 31 -0.6 82 82 WNW 6 9 30.21 1023 10 16 0.00 0.00
7:53 am 07:53 Sunny 35 1.7 31 -0.6 85 85 NNW 5 7 30.23 1024 9 14 0.00 0.00
8:53 am 08:53 Sunny 38 3.3 33 0.6 83 83 VRB 5 7 30.25 1024 7 11 0.00 0.00
9:53 am 09:53 Sunny 40 4.4 34 1.1 79 79 Calm 30.26 1025 8 13 0.00 0.00
10:53 am 10:53 Mostly Sunny 44 6.7 34 1.1 68 68 Calm 30.27 1025 10 16 0.00 0.00
11:53 am 11:53 Partly Cloudy 44 6.7 34 1.1 68 68 Calm 30.26 1025 8 13 0.00 0.00
12:53 pm 12:53 Sunny 47 8.3 33 0.6 59 59 W 7 11 30.24 1024 10 16 0.00 0.00
1:53 pm 13:53 Sunny 48 8.9 30 -1.1 50 50 Calm 30.22 1023 10 16 0.00 0.00
2:53 pm 14:53 Sunny 49 9.4 31 -0.6 50 50 SE 3 6 30.20 1023 10 16 0.00 0.00
3:53 pm 15:53 Sunny 49 9.4 30 -1.1 48 48 Calm 30.19 1023 10 16 0.00 0.00
4:53 pm 16:53 Sunny 46 7.8 30 -1.1 54 54 WSW 5 7 30.20 1023 10 16 0.00 0.00
5:53 pm 17:53 Clear 42 5.6 32 0 68 68 Calm 30.20 1023 10 16 0.00 0.00
6:53 pm 18:53 Clear 38 3.3 32 0 79 79 Calm 30.20 1023 10 16 0.00 0.00
7:53 pm 19:53 Clear 34 1.1 31 -0.6 89 89 Calm 30.20 1023 10 16 0.00 0.00
8:53 pm 20:53 Clear 33 0.6 31 -0.6 92 92 Calm 30.20 1023 10 16 0.00 0.00
9:53 pm 21:53 Clear 33 0.6 30 -1.1 89 89 Calm 30.22 1023 10 16 0.00 0.00
10:53 pm 22:53 Clear with Mist and Fog 32 0 30 -1.1 92 92 Calm 30.22 1023 6 10 0.00 0.00
11:45 pm 23:45 Clear with Mist and Fog 31 -0.6 29 -1.7 92 92 Calm 30.22 1023 2 3 0.00 0.00
11:53 pm 23:53 Clear with Mist and Fog 30 -1.1 29 -1.7 96 96 Calm 30.20 1023 2 2 0.00 0.00

Powered by AerisWeather